Location: Budapest
(47.4979°N, 19.0402°E)
Time: 16:20:42
(UTC+02:00)

ISS - Visible Passes

Search period start: 14 July 2024 00:00
Search period end: 24 July 2024 00:00
Orbit: 410 x 424 km, 51.6° (Epoch: 14 July)

Date Brightness Start Highest point End Pass type
(mag) Time Alt. Az. Time Alt. Az. Time Alt. Az.
14 Jul -3.3 01:29:29 10° WNW 01:32:01 49° WNW 01:32:01 49° WNW visible
14 Jul -3.3 21:27:07 10° WSW 21:30:25 64° NNW 21:33:43 10° ENE visible
14 Jul -2.3 23:04:22 10° WNW 23:07:31 38° N 23:10:39 10° ENE visible
15 Jul -3.6 00:41:16 10° WNW 00:44:31 70° N 00:44:31 70° N visible
15 Jul -2.3 22:15:59 10° WNW 22:19:09 39° N 22:22:18 10° ENE visible
15 Jul -3.1 23:53:00 10° WNW 23:56:16 53° NNE 23:57:19 36° ENE visible
16 Jul -1.2 01:29:51 10° WNW 01:30:11 12° WNW 01:30:11 12° WNW visible
16 Jul -2.5 21:27:35 10° W 21:30:46 43° N 21:33:58 10° ENE visible
16 Jul -2.7 23:04:42 10° WNW 23:07:55 44° N 23:10:15 16° E visible
17 Jul -2.1 00:41:29 10° WNW 00:43:07 26° WNW 00:43:07 26° WNW visible
17 Jul -2.5 22:16:21 10° WNW 22:19:31 39° N 22:22:40 10° ENE visible
17 Jul -3.7 23:53:09 10° WNW 23:56:08 69° WNW 23:56:08 69° WNW visible
18 Jul -2.4 21:27:55 10° WNW 21:31:04 38° N 21:34:13 10° ENE visible
18 Jul -3.6 23:04:50 10° WNW 23:08:08 67° NNE 23:09:12 39° E visible
19 Jul -1.0 00:41:50 10° W 00:42:04 11° W 00:42:04 11° W visible
19 Jul -3.1 22:16:28 10° WNW 22:19:43 52° NNE 22:22:17 15° E visible
19 Jul -2.2 23:53:17 10° WNW 23:55:09 27° W 23:55:09 27° W visible
20 Jul -2.7 21:28:03 10° WNW 21:31:15 43° N 21:34:27 10° E visible
20 Jul -3.8 23:04:50 10° WNW 23:08:07 63° SSW 23:08:15 62° SSW visible
21 Jul -3.9 22:16:24 10° WNW 22:19:43 88° NNE 22:21:22 27° ESE visible
21 Jul -1.2 23:53:45 10° W 23:54:15 12° W 23:54:15 12° W visible
22 Jul -3.5 21:27:57 10° WNW 21:31:15 65° NNE 21:34:30 10° ESE visible
22 Jul -2.4 23:04:55 10° W 23:07:23 27° SW 23:07:23 27° SW visible
23 Jul -3.2 22:16:17 10° WNW 22:19:27 43° SSW 22:20:32 31° SSE visible
